Location: Acts Church of Fort Worth
(32.6786°N, 97.2668°W)
Time: 08:10:04
(UTC+00:00)

Okean 1-7 - Pass Details

Date: 18 January 2026
Orbit: 566 x 588 km, 82.5° (Epoch: 9 February)

Event Time Altitude Azimuth Distance (km) Brightness Sun altitude
Rises 01:12:00 0° 177° (S) 2,758 6.5 -17.6°
Reaches altitude 10° 01:14:11 10° 173° (S) 1,862 5.6 -18.0°
Maximum altitude 01:18:13 59° 94° (E) 660 2.8 -18.8°
Enters shadow 01:19:39 36° 32° (NNE) 905 3.5 -19.1°
